This is the latest recevied weather packets stored in our database for station/object KD4EG. If no packets are shown the sender has not sent any weather packets the latest 10 day(s).
| Time | Temp. | Humidity | Pressure | Rain* | Wind** | Luminosity | Snow |
|---|---|---|---|---|---|---|---|
| 1787890113 | 21.67° C | 96% | 1019.4 hPa | 0 mm | - | 0 W/m² | - |
| 1787889812 | 21.67° C | 96% | 1019.3 hPa | 0 mm | - | 0 W/m² | - |
| 1787889508 | 21.67° C | 95% | 1019.2 hPa | 0 mm | - | 0 W/m² | - |
| 1787889202 | 21.67° C | 95% | 1019.4 hPa | 0 mm | - | 0 W/m² | - |
| 1787888897 | 21.67° C | 95% | 1019 hPa | 0 mm | - | 0 W/m² | - |
| 1787888592 | 21.67° C | 95% | 1018.8 hPa | 0 mm | - | 0 W/m² | - |
| 1787888292 | 21.67° C | 95% | 1018.7 hPa | 1.78 mm | - | 0 W/m² | - |
| 1787887988 | 22.22° C | 94% | 1018.4 hPa | 1.78 mm | - | 0 W/m² | - |
| 1787887683 | 22.22° C | 94% | 1018.6 hPa | 1.27 mm | - | 0 W/m² | - |
| 1787887379 | 22.78° C | 93% | 1018.5 hPa | 6.1 mm | - | 0 W/m² | - |
| 1787887079 | 23.33° C | 90% | 1018.1 hPa | 4.83 mm | - | 0 W/m² | - |
| 1787886774 | 23.33° C | 87% | 1018.1 hPa | 0 mm | - | 0 W/m² | - |
| 1787886473 | 22.78° C | 88% | 1018.2 hPa | 0 mm | - | 0 W/m² | - |
| 1787886169 | 22.78° C | 90% | 1018.4 hPa | 0 mm | - | 0 W/m² | - |
| 1787885868 | 22.78° C | 91% | 1018.3 hPa | 0 mm | - | 0 W/m² | - |
| 1787885567 | 22.78° C | 90% | 1018.2 hPa | 0 mm | - | 0 W/m² | - |
| 1787885265 | 22.78° C | 90% | 1018.2 hPa | 0 mm | - | 0 W/m² | - |
| 1787884961 | 22.78° C | 90% | 1018.4 hPa | 0 mm | - | 0 W/m² | - |
| 1787884655 | 22.78° C | 89% | 1018.4 hPa | 0 mm | - | 0 W/m² | - |
| 1787884351 | 22.78° C | 90% | 1018.4 hPa | 0 mm | - | 0 W/m² | - |
| 1787884046 | 22.78° C | 90% | 1018.1 hPa | 0 mm | - | 0 W/m² | - |
| 1787883741 | 22.78° C | 90% | 1018 hPa | 0 mm | - | 0 W/m² | - |
| 1787883438 | 22.22° C | 90% | 1018 hPa | 0 mm | - | 0 W/m² | - |
| 1787883136 | 22.22° C | 91% | 1018 hPa | 0 mm | - | 0 W/m² | - |
| 1787882831 | 22.22° C | 91% | 1017.8 hPa | 0 mm | - | 0 W/m² | - |
* Rain latest hour (hover to see other rain measurements)
** Current wind speed in m/s (hover to see current wind gust speed)